Home > Weather > Butte > Past weeks

Flag for USA Past Weather in Butte, Montana, USA — Yesterday and Last 2 Weeks

Now
50 °F

Broken clouds.


Feels Like: 48 °F
Forecast: 38 / 49 °F
Wind: 5 mph from South

Location: Mooney Airport

Current Time: May 26, 2016 at 10:46:26 PM

Latest Report: May 26, 2016 at 9:53 PM


Visibility: 10 mi

Pressure: 29.90 "Hg (24.40 "Hg at 1685m altitude)

Humidity: 68%

Dew Point: 40 °F

Location of ButteLocation

Past Weather in Butte — Graph

°F

Butte Temperature Yesterday

Maximum temperature yesterday: 61 °F (at 5:53 PM)
Minimum temperature yesterday: 30 °F (at 6:53 AM)
Average temperature yesterday: 46 °F

High & Low Weather Summary for the Past Weeks

 TemperatureHumidityPressure
High68 °F (May 18, 4:53 PM)96% (May 22, 1:53 AM)30.33 "Hg (May 22, 1:53 AM)
Low27 °F (May 12, 6:53 AM)23% (May 12, 3:53 PM)29.59 "Hg (May 19, 7:53 AM)
Average46 °F68%29.95 "Hg
* Reported May 11 9:53 PM — May 26 9:53 PM, Butte, Weather by CustomWeather, © 2016

Note: Actual official high and low records may vary slightly from our data, if they occured in-between our weather recording intervals... More about our weather records

Advertising

Butte Weather History for the Previous 24 Hours

Scroll right to see more
 ConditionsComfort  
Time TempWeatherWind HumidityBarometerVisibility
9:53 PM
Thu, May 26
50 °FBroken clouds.5 mph68%29.90 "Hg10 mi
8:53 PM52 °FScattered clouds.5 mph61%29.89 "Hg10 mi
7:53 PM54 °FMostly cloudy.14 mph57%29.90 "Hg10 mi
6:53 PM57 °FBroken clouds.10 mph51%29.88 "Hg10 mi
5:53 PM59 °FPassing clouds.3 mph41%29.89 "Hg10 mi
4:53 PM61 °FSunny.7 mph36%29.90 "Hg10 mi
3:53 PM62 °FBroken clouds.15 mph38%29.90 "Hg10 mi
2:53 PM59 °FPartly sunny.No wind42%29.92 "Hg10 mi
1:53 PM60 °FPartly sunny.8 mph41%29.93 "Hg10 mi
12:53 PM59 °FPassing clouds.9 mph42%29.95 "Hg10 mi
11:53 AM56 °FPartly sunny.3 mph51%29.96 "Hg10 mi
10:53 AM52 °FMore clouds than sun.No wind57%29.97 "Hg10 mi
9:53 AM51 °FMostly cloudy.No wind59%29.97 "Hg10 mi
8:53 AM49 °FSunny.No wind64%29.98 "Hg10 mi
7:53 AM42 °FPartly sunny.No wind79%30.00 "Hg10 mi
6:53 AM40 °FOvercast.No wind83%30.00 "Hg10 mi
5:53 AM39 °FOvercast.No wind86%30.00 "Hg10 mi
4:53 AM37 °FPassing clouds.5 mph89%29.99 "Hg10 mi
3:53 AM37 °FClear.5 mph89%30.01 "Hg10 mi
2:53 AM38 °FPassing clouds.5 mph86%30.01 "Hg10 mi
1:53 AM40 °FPassing clouds.No wind83%29.99 "Hg10 mi
12:53 AM41 °FPassing clouds.No wind80%30.00 "Hg10 mi
11:53 PM
Wed, May 25
45 °FClear.No wind68%29.98 "Hg10 mi
10:53 PM49 °FClear.3 mph57%29.97 "Hg10 mi
Weather by CustomWeather, © 2016

See weather overviewHow to use our weather pages